Voltar ao catálogo

CZ-2D DEB

AtivoPO
NORAD 44605·DEBRIS·🇨🇳 China

Lançado Nov 11, 2016 de Jiuquan Satellite Launch Center

Loading…

Próximas Passagens (próximas 24 horas)

TLE

EnvelhecendoSource: Space-Track

Época: Sep 9, 2026, 02:43 UTC

1 44605U 16068E   26252.11358216  .00000234  00000-0  18094-3 0  9998
2 44605  98.4099 306.9215 0228566  23.9199 337.2384 13.89307344492803

Acompanhe CZ-2D DEB em tempo real com AllMySat

Download on the App Store